When you browse on this site, cookies collect data to enhance your experience and personalize the content and advertising you see.
Visit our Privacy Policy to learn more. By continuing to use the site, you agree to this use of cookies and data.
  • In Latvia
  • List of Countries
  • For 7 days
  • Water Temperature
  • Weather Map
  • Weather Widgets
  • user-avatar
    Login

    Hourly Weather Duplischi

    Today, 21 February, Friday

    Time Temperature Precipitation Wind Pressure Humidity
    00:00 +1°C° 0 mm 1 mps 749 mmHg 93%
    01:00 -1°C° 0 mm 2 mps 749 mmHg 93%
    02:00 -1°C° 0 mm 2 mps 749 mmHg 94%
    03:00 -1°C° 0 mm 2 mps 749 mmHg 93%
    04:00 -1°C° 0 mm 2 mps 748 mmHg 91%
    05:00 -1°C° 0 mm 2 mps 748 mmHg 89%
    06:00 -1°C° 0 mm 3 mps 748 mmHg 87%
    07:00 -1°C° 0 mm 3 mps 748 mmHg 85%
    08:00 -1°C° 0 mm 3 mps 748 mmHg 82%
    15:00 +2°C° 0 mm 5 mps 747 mmHg 69%
    16:00 +1°C° 0 mm 4 mps 747 mmHg 73%
    17:00 0°C° 0 mm 4 mps 747 mmHg 76%
    18:00 0°C° 0 mm 4 mps 747 mmHg 77%
    19:00 0°C° 0 mm 4 mps 748 mmHg 78%
    20:00 0°C° 0 mm 4 mps 748 mmHg 79%
    21:00 -1°C° 0 mm 4 mps 748 mmHg 79%
    22:00 -1°C° 0 mm 4 mps 748 mmHg 80%
    23:00 -1°C° 0 mm 4 mps 748 mmHg 80%

    Tomorrow, 22 February, Saturday

    Time Temperature Precipitation Wind Pressure Humidity
    00:00 -1°C° 0 mm 4 mps 748 mmHg 84%
    01:00 -1°C° 0 mm 4 mps 748 mmHg 88%
    02:00 -1°C° 0 mm 4 mps 748 mmHg 92%
    03:00 -1°C° 0 mm 4 mps 748 mmHg 92%
    04:00 -1°C° 0 mm 4 mps 748 mmHg 92%
    05:00 -1°C° 0 mm 4 mps 748 mmHg 92%
    06:00 -1°C° 0 mm 4 mps 748 mmHg 90%
    07:00 -1°C° 0 mm 5 mps 748 mmHg 89%
    08:00 -1°C° 0 mm 5 mps 748 mmHg 88%
    09:00 0°C° 0 mm 5 mps 748 mmHg 86%
    10:00 0°C° 0 mm 5 mps 747 mmHg 84%
    11:00 0°C° 0 mm 5 mps 747 mmHg 82%
    12:00 -1°C° 0 mm 6 mps 746 mmHg 80%
    13:00 +1°C° 0 mm 6 mps 746 mmHg 78%
    14:00 +1°C° 0 mm 6 mps 745 mmHg 76%
    15:00 0°C° 0 mm 7 mps 744 mmHg 76%
    16:00 0°C° 0 mm 7 mps 742 mmHg 75%
    17:00 +2°C° 0 mm 7 mps 741 mmHg 75%
    18:00 0°C° 0.7 mm 8 mps 740 mmHg 81%
    19:00 0°C° 0.7 mm 9 mps 738 mmHg 87%
    20:00 -1°C° 0.7 mm 9 mps 737 mmHg 93%
    21:00 -1°C° 0.8 mm 9 mps 736 mmHg 93%
    22:00 -1°C° 0.8 mm 9 mps 734 mmHg 93%
    23:00 0°C° 0.8 mm 9 mps 733 mmHg 92%

    Day after tomorrow, 23 February, Sunday

    Time Temperature Precipitation Wind Pressure Humidity
    00:00 0°C° 0.4 mm 8 mps 732 mmHg 91%
    01:00 0°C° 0.4 mm 8 mps 732 mmHg 89%
    02:00 +2°C° 0.4 mm 7 mps 731 mmHg 87%
    03:00 +1°C° 0.7 mm 6 mps 731 mmHg 84%
    04:00 +1°C° 0.7 mm 6 mps 731 mmHg 82%
    05:00 0°C° 0.7 mm 5 mps 731 mmHg 79%
    06:00 0°C° 0 mm 5 mps 731 mmHg 78%
    07:00 0°C° 0 mm 5 mps 731 mmHg 78%
    08:00 -1°C° 0 mm 5 mps 732 mmHg 78%
    09:00 -1°C° 0 mm 6 mps 732 mmHg 76%
    10:00 -1°C° 0 mm 6 mps 732 mmHg 74%
    11:00 +1°C° 0 mm 6 mps 732 mmHg 72%
    12:00 +1°C° 0.1 mm 6 mps 732 mmHg 74%
    13:00 +1°C° 0.1 mm 6 mps 732 mmHg 77%
    14:00 +1°C° 0.1 mm 6 mps 732 mmHg 79%
    15:00 +1°C° 0.2 mm 6 mps 732 mmHg 82%
    16:00 -1°C° 0.2 mm 6 mps 731 mmHg 85%
    17:00 -1°C° 0.2 mm 6 mps 731 mmHg 88%
    18:00 -1°C° 0.3 mm 6 mps 731 mmHg 89%
    19:00 -1°C° 0.3 mm 6 mps 730 mmHg 91%
    20:00 -2°C° 0.3 mm 6 mps 730 mmHg 93%
    21:00 -2°C° 0.1 mm 6 mps 730 mmHg 92%
    22:00 -2°C° 0.1 mm 6 mps 730 mmHg 90%
    23:00 -1°C° 0.1 mm 5 mps 729 mmHg 89%

    24 February, Monday

    Time Temperature Precipitation Wind Pressure Humidity
    00:00 -1°C° 0.1 mm 5 mps 729 mmHg 91%
    01:00 -1°C° 0.1 mm 5 mps 729 mmHg 93%
    02:00 -1°C° 0.1 mm 5 mps 729 mmHg 95%
    03:00 -1°C° 0.1 mm 4 mps 729 mmHg 95%
    04:00 -1°C° 0.1 mm 4 mps 729 mmHg 96%
    05:00 0°C° 0.1 mm 3 mps 729 mmHg 96%
    06:00 0°C° 0.2 mm 3 mps 729 mmHg 95%
    07:00 0°C° 0.2 mm 3 mps 730 mmHg 94%
    08:00 0°C° 0.2 mm 3 mps 731 mmHg 94%
    09:00 0°C° 0.1 mm 4 mps 732 mmHg 85%
    10:00 0°C° 0.1 mm 5 mps 732 mmHg 77%
    11:00 0°C° 0.1 mm 5 mps 733 mmHg 69%
    12:00 -1°C° 0 mm 6 mps 734 mmHg 67%
    13:00 -1°C° 0 mm 6 mps 735 mmHg 64%
    14:00 -1°C° 0 mm 6 mps 735 mmHg 62%
    15:00 -2°C° 0 mm 6 mps 736 mmHg 62%
    16:00 -1°C° 0 mm 5 mps 736 mmHg 62%
    17:00 -1°C° 0 mm 5 mps 737 mmHg 61%
    18:00 -2°C° 0 mm 5 mps 737 mmHg 63%
    19:00 -2°C° 0 mm 5 mps 738 mmHg 65%
    20:00 -2°C° 0 mm 5 mps 739 mmHg 67%
    21:00 -4°C° 0 mm 5 mps 739 mmHg 68%
    22:00 -3°C° 0 mm 4 mps 739 mmHg 69%
    23:00 -3°C° 0 mm 4 mps 739 mmHg 70%

    25 February, Tuesday

    Time Temperature Precipitation Wind Pressure Humidity
    00:00 -3°C° 0 mm 4 mps 739 mmHg 71%
    01:00 -2°C° 0 mm 3 mps 739 mmHg 73%
    02:00 -2°C° 0 mm 3 mps 740 mmHg 74%
    03:00 -4°C° 0 mm 3 mps 739 mmHg 77%
    04:00 -3°C° 0 mm 2 mps 739 mmHg 80%
    05:00 -3°C° 0 mm 2 mps 739 mmHg 83%
    06:00 -2°C° 0 mm 2 mps 738 mmHg 82%
    07:00 -2°C° 0 mm 3 mps 738 mmHg 81%
    08:00 -2°C° 0 mm 3 mps 738 mmHg 80%
    09:00 -1°C° 0 mm 3 mps 737 mmHg 79%
    10:00 -1°C° 0 mm 3 mps 737 mmHg 78%
    11:00 0°C° 0 mm 3 mps 736 mmHg 77%
    12:00 0°C° 0 mm 3 mps 736 mmHg 79%
    13:00 0°C° 0 mm 3 mps 735 mmHg 81%
    14:00 0°C° 0 mm 4 mps 734 mmHg 83%
    15:00 -1°C° 0.2 mm 4 mps 733 mmHg 87%
    16:00 -1°C° 0.2 mm 4 mps 732 mmHg 92%
    17:00 -2°C° 0.2 mm 5 mps 731 mmHg 96%
    18:00 -1°C° 0.5 mm 4 mps 731 mmHg 96%
    19:00 -1°C° 0.5 mm 4 mps 730 mmHg 97%
    20:00 +1°C° 0.5 mm 3 mps 729 mmHg 97%
    21:00 +1°C° 0.3 mm 3 mps 729 mmHg 96%
    22:00 +1°C° 0.3 mm 3 mps 729 mmHg 95%
    23:00 +1°C° 0.3 mm 3 mps 728 mmHg 94%

    26 February, Wednesday

    Time Temperature Precipitation Wind Pressure Humidity
    00:00 0°C° 0 mm 3 mps 728 mmHg 94%
    01:00 0°C° 0 mm 3 mps 728 mmHg 93%
    02:00 0°C° 0 mm 3 mps 728 mmHg 92%
    03:00 -1°C° 0 mm 3 mps 728 mmHg 93%
    04:00 -1°C° 0 mm 3 mps 728 mmHg 93%
    05:00 -1°C° 0 mm 3 mps 728 mmHg 93%
    06:00 -1°C° 0.1 mm 3 mps 728 mmHg 93%
    07:00 -1°C° 0.1 mm 3 mps 727 mmHg 93%
    08:00 -2°C° 0.1 mm 4 mps 727 mmHg 93%
    09:00 -1°C° 0.1 mm 4 mps 728 mmHg 90%
    10:00 -1°C° 0.1 mm 4 mps 728 mmHg 86%
    11:00 -1°C° 0.1 mm 4 mps 728 mmHg 83%
    12:00 0°C° 0 mm 4 mps 728 mmHg 82%
    13:00 0°C° 0 mm 4 mps 728 mmHg 81%
    14:00 0°C° 0 mm 4 mps 728 mmHg 80%
    15:00 0°C° 0.1 mm 4 mps 729 mmHg 82%
    16:00 0°C° 0.1 mm 4 mps 729 mmHg 84%
    17:00 0°C° 0.1 mm 3 mps 729 mmHg 86%
    18:00 0°C° 0 mm 3 mps 729 mmHg 86%
    19:00 0°C° 0 mm 3 mps 730 mmHg 85%
    20:00 0°C° 0 mm 3 mps 730 mmHg 85%
    21:00 -1°C° 0 mm 3 mps 730 mmHg 86%
    22:00 -1°C° 0 mm 2 mps 730 mmHg 87%
    23:00 -2°C° 0 mm 2 mps 731 mmHg 88%
    Show more